Погода в Серноводском

Россия / Ставропольский край     43°51′31″N   44°47′26″E
темп.,
°C
ветер,
м/с
пор.,
м/с
влажн.,
%
обл.,
%
осадки,
мм/ч
давл.,
гПа
погр.,
м
31 июля, сб
сб3100:00+20в22515 0.0 101016
03:00+19юз00644 0.0 101011
06:00+20з226615 0.1 101061
09:00+26зсз33489 0.1 1010568
12:00+30зсз22365 0.0 10091183
15:00+32зюз22325 0.0 10081663
18:00+31юз23415 0.0 100891
21:00+26юз33470 0.0 100921
1 августа, вс
вс100:00+23зюз22545 0.0 101023
03:00+22зюз33615 0.0 101031
06:00+23з11665 0.0 101144
09:00+28сз11487 0.0 1011553
12:00+33ссв22355 0.0 10101479
15:00+34всв33275 0.0 10082139
18:00+33ю113692 0.0 100815
21:00+27св1142100 0.0 100916
2 августа, пн
пн200:00+24зюз225216 0.1 100921
03:00+23зсз336876 0.1 100956
06:00+23з3670100 0.0 1011191
09:00+26з3461100 0.0 1011387
12:00+32ссз114284 0.0 10101080
15:00+33св223587 0.0 10091672
18:00+32с114275 0.0 100912
21:00+24зюз365198 0.3 1010115
3 августа, вт
вт300:00+22ююз116543 0.0 101011
03:00+22юз11590 0.0 101011
06:00+23зюз22660 0.0 101150
09:00+29зюз23460 0.0 1011597
12:00+33з33380 0.0 10091342
15:00+35з22310 0.0 10082002
18:00+34ю22370 0.0 100862
21:00+28юз344936 0.0 100952
4 августа, ср
ср400:00+27зюз36553 0.0 100984
03:00+25з35606 0.0 101074
06:00+24зюз47600 0.0 1011129
09:00+31зсз56390 0.0 1012679
12:00+35зсз44300 0.0 10111374
15:00+37зсз332258 0.0 10102611
18:00+33юз4532100 0.0 100992
21:00+30зюз4836100 0.0 1010140